CZ-6A DEB, 61491

Orbit data source: Space-Track

CZ-6A DEB, 61491 is space debris in LEO originally from a launch on Tue, 06 Aug 2024 UTC launched from the Taiyaun Space Center, China (TSC). Debris objects in space refer to the collection of defunct objects orbiting the Earth. Examples of debris include non-operational satellites, rocket bodies, and fragments generated from explosions, collisions, or faulty payload assembly.

Loading next visibility...
Identifier
61491, 2024-140AAZ
Orbit
LEO
Country
Flag of CNCN / PRC
Related business
Manufacturer
SAST
Mission
Spacecraft
Bus & Motor
Unknown
Mass
Unknown
Launch date (UTC)
2024-08-06 (1 year ago)
Launch vehicle
Unknown
Launch site
Taiyaun Space Center, China (TSC)
Object type
Payload
Rocket body
Debris
Shape & HBR
Unknown shape, 0.2 m
Radar Cross Section
Small (<0.1 m²)

Expand to show TLE details & history
Last TLE update: 17 hours ago

TLE from 17 hours ago
0 CZ-6A DEB
1 61491U 24140AAZ 25354.78920906  .00000328  00000-0  11280-3 0  9990
2 61491  88.6633 273.3645 0038515 126.8644 233.6095 14.33081224 66671
Epoch: 2025-12-20T18:56Z
TLE epoch observation values (Epoch: 2025-12-20T18:56:27.662Z)
Latitude
Longitude
-100.36173°
Altitude
800.953 km
Speed
7.444 km/s
True Right ascension
18h 13m 27s
True Declination
0° 00' 00"
Sunlit
Object was in daylight at epoch
Visualization orbit readout
Latitude
Unknown
Longitude
Unknown
Altitude
Unknown
Speed
Unknown
Apparent Right ascension
Unknown
Apparent Declination
Unknown
Sunlit
N/A
Visualization observer readout
Local Sidereal Time
10:41:47
Azimuth
Unknown
Elevation
Unknown
Doppler factor
Unknown
Orbital elements
Apogee altitude
805.948 km
Perigee altitude
750.821 km
Semi-major axis
7,156.522 km
Eccentricity
0.00385
Inclination
88.6633°
RAAN
273.3645°
Arg. of periapsis
126.8644°
True anomaly
233.25523°
Mean anomaly
233.6095°
Eccentric anomaly
233.43226°
Mean motion
3.58501 °/min
Orbital period
100.42 mins
BSTAR
0.0001128
Loading maneuver chart data...
Computing Atmospheric mass density...
Loading historical data...
Loading historical data...
Loading historical data...
Loading historical data...
Loading historical data...
Loading historical data...
Loading historical data...

Documentation

Showing up to 5 results
|